www.pogodaiklimat.ru

Погода и климат >> Архив погоды >> Россия >> Якутия >> Тяня


ПОГОДА в Тяне

  • Прогноз погоды в Тяне
  • Монитор погоды в Тяне

АРХИВ ПОГОДЫ в Тяне

Время (UTC), дата Ветер
(напр.,м/с)
 
Видим.   Явления Облачность Т
(С)
Тd
(С)
f
(%)
Тe
(С)
Тes
(С)
Комфортность P
(гПа)
Po
(гПа)
Тmin
(С)
Tmax
(С)
R
(мм)
R24
(мм)
S
(см)
00 10.09 штиль 0 50 км в посл. час туман ясно -0.6 -1.8 92 -2 +1 1020.6 995.6 -3.5
03 10.09 штиль 0 50 км ясно +13.0 +4.2 55 +13 +22 1017.8 994.0
06 10.09 ЮЗ 1 50 км ясно +20.0 +2.7 32 +21 +28 комфорт 1014.0 990.9
09 10.09 штиль 0 50 км ясно +19.2 +3.6 36 +19 +20 1012.2 989.0
12 10.09 штиль 0 50 км ясно +5.8 +2.1 77 +5 +5 1012.9 988.6 +20.5
15 10.09 штиль 0 50 км ясно -1.2 -2.4 92 -2 -2 1012.9 987.9
18 10.09 штиль 0 50 км ясно -2.6 -2.9 98 -4 -4 1012.7 987.6
21 10.09 штиль 0 50 км 1/0
[Ci sp]
-4.4 -4.6 99 -6 -6 1011.3 986.2
00 11.09 СВ 1 50 км 10/0
[Ci sp]
+0.4 -1.8 85 -2 0 1010.2 985.5 -5.0
03 11.09 Ю 1 50 км 10/0
[Ac trans Ci sp]
+10.1 +2.4 59 +10 +15 1008.4 984.6
06 11.09 СЗ 1 50 км 10/4 600 м
[Sc Ac trans Ci sp]
+18.8 +2.6 34 +20 +22 1007.0 983.9
09 11.09 штиль 0 50 км 10/10 600 м
[Sc]
+17.3 +7.9 54 +17 +17 1007.6 984.5
12 11.09 штиль 0 50 км 3/3 600 м
[Sc]
+7.3 +2.8 73 +7 +7 1009.2 985.1 +20.0
15 11.09 штиль 0 50 км 4/0
[Ci fib]
+0.6 -0.5 92 -1 -1 1011.0 986.3
18 11.09 штиль 0 50 км 6/0
[Ci sp]
-2.0 -2.6 96 -3 -3 1011.0 985.0
21 11.09 штиль 0 50 км местами туман поземный 10/0
[Ci sp]
0.0 -0.3 98 -1 -1 1009.1 984.4
00 12.09 штиль 0 20 км слаб. дождь 10/0
[As op]
+1.6 +1.1 96 0 +1 1005.1 980.6 -3.3 +10.0 0.0
03 12.09 В 1 20 км слаб. дождь 10/6 600 м
[Frnb As op]
+4.6 +4.4 99 +3 +4 998.5 974.4
06 12.09 С 1 20 км слаб. дождь 10/8 600 м
[Frnb As op]
+8.0 +7.6 97 +7 +7 995.6 972.0
09 12.09 В 1 50 км местами туман поземный {дождь} 10/8 600 м
[Frnb As op]
+9.3 +8.7 96 +9 +9 996.9 973.3
12 12.09 С 1 20 км слаб. морось {дождь} 10/8 600 м
[Frnb As op]
+9.7 +8.0 89 +9 +9 999.2 975.6 +10.0 7
15 12.09 штиль 0 50 км {морось} 10/10 600 м
[Cb cap]
+8.2 +7.4 95 +7 +7 1000.4 976.7
18 12.09 С 1 50 км {морось} 10/4 600 м
[Cb cap Ci fib]
+8.9 +7.0 88 +8 +8 1001.7 977.9
21 12.09 С 1 50 км {морось} 10/10 600 м
[Cb cap]
+8.0 +4.8 80 +7 +7 1004.4 980.6
00 13.09 СЗ 2 50 км 1/0
[Ac trans]
+7.2 -0.3 59 +5 +7 1006.7 982.6 +6.1 0.0
03 13.09 СЗ 3 50 км 3/3 600 м
[Cu med, cong]
+8.7 -6.2 34 +7 +11 1007.6 983.5
06 13.09 СЗ 2 50 км 8/8 600 м
[Cb cap]
+10.3 -6.8 29 +10 +11 1006.4 982.6
09 13.09 СЗ 2 50 км 3/3 600 м
[Cb cap]
+8.7 -8.1 30 +8 +8 1007.8 983.8
12 13.09 ЮВ 1 50 км 1/1 600 м
[Cu hum]
-1.6 -6.4 70 -3 -3 1009.0 984.1 +11.1
15 13.09 штиль 0 50 км ясно -6.0 -7.1 92 -7 -7 1009.5 984.2
18 13.09 Ю 1 50 км ясно -7.8 -8.0 98 -10 -10 1008.8 983.3
21 13.09 ЮВ 1 50 км 10/0
[As op]
-6.5 -7.7 91 -9 -9 1007.5 982.3
00 14.09 штиль 0 50 км {снег} 10/10 600 м
[Sc]
-3.0 -4.3 91 -4 -4 1007.6 982.6 -9.4 0.0
03 14.09 В 1 50 км 10/0
[As op Ci sp]
+8.7 -1.8 48 +9 +12 1004.1 980.3
06 14.09 ЮЗ 1 50 км 10/8 600 м
[Sc Ac trans Ci sp]
+10.9 -3.1 37 +11 +12 1001.8 978.1
09 14.09 Ю 1 50 км 8/8 600 м
[Cb cap]
+11.1 -2.0 40 +11 +11 999.9 976.4
12 14.09 ЮВ 1 20 км сильн. ливневой дождь 10/10 600 м
[Cb cap]
+5.8 +1.8 75 +5 +5 1001.0 977.0 +11.8 0.3
15 14.09 штиль 0 20 км слаб. дождь 10/0
[As op]
+4.0 +3.0 93 +3 +3 1000.9 976.8
18 14.09 штиль 0 20 км слаб. дождь 10/0
[As op]
+2.6 +2.1 97 +1 +1 1000.9 976.7
21 14.09 СЗ 1 50 км {дождь} 10/8 600 м
[Frnb As op]
+2.4 +1.4 93 +1 +1 1002.1 977.7
00 15.09 СЗ 2 50 км {дождь} 10/3 600 м
[Frnb As op]
+2.3 -0.7 81 -1 -1 1005.1 980.7 +1.4 4
03 15.09 З 2 50 км 6/5 600 м
[Cu med, cong Ci sp]
+6.2 -3.4 50 +4 +7 1005.1 981.1
06 15.09 З 2 50 км 6/6 600 м
[Cu hum]
+8.2 -7.6 32 +7 +9 1004.5 980.7
09 15.09 С 1 50 км 9/9 600 м
[Sc]
+7.1 -4.7 43 +7 +7 1005.7 981.8
12 15.09 штиль 0 50 км 8/8 600 м
[Sc]
-0.6 -5.1 72 -1 -1 1008.5 983.7 +9.1
15 15.09 штиль 0 50 км ясно -3.3 -4.7 90 -4 -4 1009.2 984.2
18 15.09 штиль 0 50 км 10/10 600 м
[Sc]
-3.2 -3.9 95 -4 -4 1009.4 984.4
21 15.09 Ю 1 50 км 10/10 600 м
[Sc]
-2.0 -3.2 91 -4 -4 1009.6 984.6
00 16.09 штиль 0 50 км 10/10 600 м
[Sc]
-0.2 -0.5 98 -2 -2 1009.4 984.6 -6.4
03 16.09 СВ 1 50 км 10/10 600 м
[Sc]
+6.6 -2.1 54 +6 +6 1008.2 984.1
06 16.09 СВ 1 50 км 10/8 600 м
[Sc As trans Ci sp]
+8.0 -2.9 46 +8 +8 1008.2 984.2
09 16.09 СЗ 1 50 км 10/3 600 м
[Cb cap As op]
+8.2 -2.6 46 +8 +8 1009.4 985.4
12 16.09 штиль 0 50 км 10/0
[As trans Ci sp]
+1.7 -2.4 74 +1 +1 1012.3 987.6 +9.1
15 16.09 штиль 0 50 км 10/0
[As trans]
+1.4 -1.1 83 0 0 1013.9 989.2
18 16.09 штиль 0 50 км {дождь} 10/0
[Ac trans Cs]
-0.1 -1.0 94 -1 -1 1015.4 990.6
21 16.09 штиль 0 50 км 10/0
[As op]
-0.5 -0.8 98 -2 -2 1017.0 992.1

 

Местоположение метеостанции Тяня (Якутия, Россия): широта 59.00 долгота 119.80 высота над уровнем моря 199 м.

В архиве по умолчанию представлена погода в Тяне за последнюю неделю. Архивные данные за месяц целиком и за предыдущие месяцы, начиная с января 2011 года, Вы можете получить, выбрав интересующий диапазон дат из раскрывающегося списка и нажав кнопку "Ввод!".


*Определитесь, кто Вы:
робот инопланетянин человек

Внимание! Время в таблицах - всемирное. Для получения местного времени необходимо прибавить поправку, которая равна 9 ч.

Смотрите также архив погоды в соседних городах и на ближайших метеорологических станциях:

Погода в Джикимде (Якутия, Россия) (109 км)
Погода в Олекминске (Якутия, Россия) (159 км)
Погода в Маче (Якутия, Россия) (162 км)
Погода в Перевозе (Иркутская область, Россия) (166 км)
Погода в Килиере (Якутия, Россия) (219 км)
Погода в Суон-Тите (Якутия, Россия) (249 км)
Погода в Чаре (Забайкальский край, Россия) (252 км)
Погода в Удокане (Забайкальский край, Россия) (266 км)
Погода в Усть-Нюкже (Амурская область, Россия) (287 км)
Погода в Большой Лепринде (Забайкальский край, Россия) (292 км)

Пояснения к столбцам:

Ветер - указаны скорость ветра в м/с - средняя за 10 мин, порывы в срок и между сроками (в фигурных скобках) и направление, откуда дует ветер: С - северный, СВ - северо-восточный, В - восточный, ЮВ - юго-восточный, Ю - южный, ЮЗ - юго-западный, З - западный, СЗ - северо-западный.
Видимость - горизонтальная дальность видимости в метрах или километрах. При видимости от 1 до 10 км при отсутствии осадков обычно наблюдается дымка, при ухудшении видимости до 1 км и менее - туман. В сухую погоду видимость может ухудшаться дымом, пылью или мглою.
Явления - указаны атмосферные явления, наблюдавшиеся в срок или в последний час перед сроком; фигурными скобками обозначены явления, наблюдавшиеся между сроками (за 1-3 часа до срока); квадратными скобками обозначены град или гололедные отложения с указанием их диаметра в мм.
Облачность - указаны через наклонную черту общая и нижняя облачность в баллах и высота нижней границы облаков в метрах; квадратными скобками обозначены формы облаков: Ci - перистые, Cs - перисто-слоистые, Cc - перисто-кучевые, Ac - высококучевые, As - высокослоистые, Sc - слоисто-кучевые, Ns - слоисто-дождевые, Cu - кучевые, Cb - кучево-дождевые. Подробнее классификацию облаков см. в Атласе облаков (PDF).
T - Температура воздуха - температура, измеренная на высоте 2 м над землей.
Td - Температура точки росы - температура, при понижении до которой содержащийся в воздухе водяной пар достигнет насыщения.
f - Относительная влажность воздуха - влажноcть воздуха, измеренная на высоте 2 м над землей.
Te - Эффективная температура - температура, которую ощущает одетый по сезону человек в тени. Характеристика душности погоды. При расчете учитывается влияние влажности воздуха и скорости ветра на теплоощущения человека.
Tes - Эффективная температура на солнце - температура, которую ощущает человек, с поправкой на солнечный нагрев. Характеристика знойности погоды. Зависит от высоты солнца над горизонтом, облачности и скорости ветра. Ночью, в пасмурную погоду, а также при ветре 12 м/с и более поправка равна нулю.
P - Атмосферное давление - приведенное к уровню моря атмосферное давление.
Po - Атмосферное давление - измеренное на уровне метеостанции атмосферное давление.
Tmin - Минимальная температура - минимум температуры воздуха на высоте 2 м над землей.
Tmax - Максимальная температура - максимум температуры воздуха на высоте 2 м над землей.
R - Количество осадков - Количество выпавших осадков за период времени, мм. При наведении курсора мыши на число - период времени, за который выпало указанное количество осадков.
R24 - Количество осадков - Количество выпавших осадков за 24 часа, мм.
S - Снежный покров - Высота снежного покрова, см. При наведении курсора мыши на число - состояние снежного покрова и степень покрытия местности в баллах.